Deer Park, WA
on Thursday, December 13, 2012

Thursday
Previous Day Next Day
Daily Summary
 ActualAverageRecord
Temperature
Mean Temperature °F 25°F  
Max Temperature 32°F 32°F 45°F (2006)
Min Temperature 22°F 19°F 8°F (2008)
Degree Days
Heating Degree Days 38 40  
Month to date heating degree days 417 499  
Since 1 July heating degree days 2154 2502  
Cooling Degree Days 0 0  
Month to date cooling degree days 0 0  
Year to date cooling degree days 232 187  
Moisture
Dew Point 29°F   
Average Humidity 96    
Maximum Humidity 100    
Minimum Humidity 92    
Precipitation
Precipitation 0.01 in 0.09 in 1.05 in (2001)
Month to date precipitation 1.64 1.15  
Year to date precipitation 25.75 20.54  
Wind
Wind Speed 2 mph   
Max Wind Speed 9 mph   
Max Gust Speed 12 mph   
Visibility 6 miles   
Events Fog , Snow   

Key: T is trace of precipitation, MM is missing value
Source: NWS Daily Summary
Time(PST)TemperatureDew PointHumidity Pressure Visibility Wind DirectionWind SpeedGust SpeedPrecipitationEvents Conditions
12:07 AM 32.0°F 32.0°F 100% 29.94 in 6.0 miles Calm Calm - N/A   Overcast
12:18 AM 32.0°F 32.0°F 100% 29.94 in 5.0 miles SSE 3.5 mph - N/A   Overcast
12:53 AM 32.0°F 32.0°F 100% 30.00 in 8.0 miles SSE 3.5 mph - N/A   Overcast
1:53 AM 32.0°F 30.9°F 96% 30.00 in 10.0 miles SSE 3.5 mph - N/A   Overcast
2:53 AM 32.0°F 30.9°F 96% 30.01 in 10.0 miles WSW 5.8 mph - N/A   Overcast
3:53 AM 30.9°F 30.0°F 96% 30.02 in 10.0 miles South 5.8 mph - N/A   Overcast
4:00 AM 30.2°F 30.2°F 100% 29.96 in 10.0 miles SSW 5.8 mph - N/A   Overcast
4:30 AM 30.2°F 30.2°F 100% 29.97 in 10.0 miles SSW 9.2 mph - N/A   Overcast
4:53 AM 30.9°F 28.9°F 92% 30.03 in 10.0 miles SW 3.5 mph - N/A   Overcast
5:00 AM 30.2°F 28.4°F 93% 29.97 in 9.0 miles WSW 5.8 mph - N/A   Overcast
5:19 AM 30.2°F 30.2°F 100% 29.98 in 10.0 miles Calm Calm - N/A   Overcast
5:53 AM 30.0°F 28.9°F 96% 30.05 in 10.0 miles SSW 5.8 mph - N/A   Overcast
6:07 AM 30.2°F 28.4°F 93% 29.99 in 10.0 miles SSW 6.9 mph - N/A   Overcast
6:17 AM 30.2°F 28.4°F 93% 29.99 in 10.0 miles SSW 5.8 mph - N/A   Overcast
6:53 AM 30.0°F 28.0°F 92% 30.05 in 2.0 miles SSW 5.8 mph - 0.00 in Snow Light Snow
7:00 AM 30.2°F 28.4°F 93% 29.99 in 1.2 miles SSW 4.6 mph - 0.01 in Snow Light Snow
7:08 AM 30.2°F 28.4°F 93% 29.99 in 2.0 miles SSW 3.5 mph - 0.01 in Snow Light Snow
7:17 AM 28.4°F 28.4°F 100% 29.99 in 2.5 miles SW 3.5 mph - 0.01 in Snow Light Snow
7:34 AM 30.2°F 28.4°F 93% 29.99 in 4.0 miles Calm Calm - 0.01 in Snow Light Snow
7:44 AM 30.2°F 28.4°F 93% 29.99 in 2.0 miles Calm Calm - 0.01 in Snow Light Snow
7:47 AM 30.2°F 28.4°F 93% 29.99 in 1.8 miles Calm Calm - 0.01 in Snow Light Snow
7:53 AM 30.0°F 28.9°F 96% 30.06 in 1.2 miles Calm Calm - 0.01 in Snow Light Snow
8:04 AM 30.2°F 28.4°F 93% 30.00 in 1.2 miles Calm Calm - 0.00 in Snow Light Snow
8:13 AM 30.2°F 28.4°F 93% 29.99 in 2.0 miles WSW 3.5 mph - 0.00 in Snow Light Snow
8:24 AM 30.2°F 28.4°F 93% 29.99 in 3.0 miles Calm Calm - 0.00 in   Overcast
8:40 AM 30.2°F 28.4°F 93% 30.00 in 7.0 miles Calm Calm - 0.00 in   Overcast
8:53 AM 30.0°F 28.9°F 96% 30.06 in 2.5 miles WSW 4.6 mph - 0.00 in Snow Light Snow
8:58 AM 30.2°F 28.4°F 93% 30.00 in 3.0 miles West 3.5 mph - 0.00 in Snow Light Snow
9:19 AM 30.2°F 28.4°F 93% 30.00 in 1.8 miles West 3.5 mph - 0.00 in Snow Light Snow
9:30 AM 30.2°F 28.4°F 93% 30.00 in 3.0 miles West 3.5 mph - 0.00 in Snow Light Snow
9:45 AM 30.2°F 28.4°F 93% 30.00 in 8.0 miles Calm Calm - 0.00 in   Overcast
9:53 AM 30.9°F 28.9°F 92% 30.06 in 8.0 miles Calm Calm - 0.00 in   Overcast
10:01 AM 30.2°F 28.4°F 93% 29.99 in 6.0 miles Calm Calm - N/A   Overcast
10:53 AM 30.9°F 30.0°F 96% 30.04 in 9.0 miles Calm Calm - N/A   Overcast
11:11 AM 30.2°F 30.2°F 100% 29.98 in 6.0 miles Calm Calm - N/A   Overcast
11:29 AM 30.2°F 30.2°F 100% 29.98 in 7.0 miles Calm Calm - N/A   Overcast
11:37 AM 30.2°F 30.2°F 100% 29.97 in 5.0 miles Calm Calm - N/A   Overcast
11:53 AM 32.0°F 30.9°F 96% 30.03 in 8.0 miles Calm Calm - N/A   Overcast
12:07 PM 32.0°F 30.2°F 93% 29.96 in 10.0 miles Calm Calm - N/A   Overcast
12:53 PM 32.0°F 30.0°F 92% 30.01 in 10.0 miles Calm Calm - N/A   Overcast
1:21 PM 32.0°F 30.2°F 93% 29.93 in 10.0 miles Calm Calm - N/A   Overcast
1:53 PM 32.0°F 30.0°F 92% 29.99 in 10.0 miles Calm Calm - N/A   Overcast
2:34 PM 32.0°F 30.2°F 93% 29.91 in 10.0 miles Calm Calm - N/A   Overcast
3:36 PM 32.0°F 30.2°F 93% 29.91 in 3.0 miles Calm Calm - 0.00 in Snow Light Snow
3:45 PM 32.0°F 30.2°F 93% 29.90 in 5.0 miles Calm Calm - 0.00 in   Overcast
5:02 PM 30.2°F 30.2°F 100% 29.88 in 7.0 miles NE 3.5 mph - N/A   Overcast
5:53 PM 30.9°F 30.0°F 96% 29.93 in 9.0 miles Calm Calm - N/A   Overcast
6:21 PM 30.2°F 30.2°F 100% 29.87 in 8.0 miles NW 3.5 mph - N/A   Overcast
6:31 PM 30.2°F 30.2°F 100% 29.87 in 8.0 miles NW 3.5 mph - N/A   Overcast
6:53 PM 30.9°F 30.0°F 96% 29.93 in 8.0 miles Calm Calm - N/A   Overcast
7:53 PM 30.0°F 28.9°F 96% 29.92 in 7.0 miles Calm Calm - N/A   Overcast
8:24 PM 28.4°F 28.4°F 100% 29.85 in 1.8 miles Calm Calm - N/A   Scattered Clouds
8:33 PM 28.4°F 28.4°F 100% 29.85 in 0.5 miles Calm Calm - N/A Fog Light Freezing Fog
8:53 PM 26.1°F 25.0°F 96% 29.92 in 0.2 miles Calm Calm - N/A Fog Light Freezing Fog
9:20 PM 26.6°F 26.6°F 100% 29.84 in 1.0 miles Calm Calm - N/A   Overcast
9:24 PM 26.6°F 26.6°F 100% 29.84 in 3.0 miles Calm Calm - N/A   Overcast
10:15 PM 26.6°F 26.6°F 100% 29.83 in 8.0 miles Calm Calm - N/A   Scattered Clouds
10:44 PM 26.6°F 26.6°F 100% 29.83 in 1.8 miles Calm Calm - N/A   Partly Cloudy
10:53 PM 27.0°F 26.1°F 96% 29.90 in 0.5 miles Calm Calm - N/A Fog Light Freezing Fog
11:31 PM 23.0°F 21.2°F 93% 29.82 in 0.2 miles Calm Calm - N/A Fog Light Freezing Fog
11:53 PM 21.9°F 21.0°F 96% 29.89 in 0.5 miles Calm Calm - N/A Fog Light Freezing Fog
Moon Phase
Dec. 13 Dec. 20 Dec. 28 Jan. 04 Jan. 11
Sunrise:07:31 AM (PST) Moon Rise:07:43 AM (PST)12/13
Sunset:03:56 PM (PST) Moon Set:04:46 PM (PST)12/13

Copyright © 2014 The Weather Underground, Inc.